Kill Devil Hills, NC

10:50 AM EST on November 20, 2017 (GMT -0500)
First Flight

Weather History for KFFA - February, 2014

Change the Weather History Date:

Thursday, February 20, 2014

  Actual Average (KMQI) Record (KMQI)
Temperature  
Mean Temperature 56 °F -  
Max Temperature 69 °F 51 °F 72 °F (1971)
Min Temperature 44 °F 37 °F 10 °F (2015)
Degree Days  
Heating Degree Days 8    
Growing Degree Days 6 (Base 50)    
Moisture  
Dew Point 48 °F    
Average Humidity 78    
Maximum Humidity 97    
Minimum Humidity 63    
Precipitation  
Precipitation 0.00 in - - ()
Sea Level Pressure  
Sea Level Pressure 30.15 in    
Wind  
Wind Speed 7 mph (ESE)    
Max Wind Speed 10 mph    
Max Gust Speed 20 mph    
Visibility 10 miles    
Events      
Averages and records for this station are not official NWS values.
T = Trace of Precipitation, MM = Missing Value Source: NWS Daily Summary

Daily Weather History Graph

Daily Weather History Graph

Search for Another Location

Airport or City:

Trip Planner

Search our weather history database for the weather conditions in past years. The results will help you decide how hot, cold, wet, or windy it might be!

Date:

Astronomy

Feb. 20, 2014 Rise Set
Actual Time 6:44 AM EST 5:49 PM EST
Civil Twilight 6:18 AM EST 6:15 PM EST
Nautical Twilight 5:48 AM EST 6:45 PM EST
Astronomical Twilight 5:18 AM EST 7:14 PM EST
Moon 11:29 PM EST 9:36 AM EST
Length of Visible Light 11h 56m
Length of Day
11h 04m
Waning Gibbous, 71% of the Moon is Illuminated
Feb 20
Waning Gibbous
Feb 22
Last Quarter
Mar 1
New
Mar 8
First Quarter
Mar 16
Full

Hourly Weather History & Observations

Time (EST) Temp. Windchill Dew Point Humidity Pressure Visibility Wind Dir Wind Speed Gust Speed Precip Events Conditions
12:15 AM 54.5 °F - 50.2 °F 85% 30.11 in 10.0 mi West 4.6 mph - N/A   Clear
12:35 AM 54.3 °F - 50.4 °F 86% 30.12 in 10.0 mi North 4.6 mph - N/A   Clear
12:55 AM 55.8 °F - 49.6 °F 80% 30.13 in 10.0 mi North 8.1 mph 17.3 mph N/A   Clear
1:15 AM 54.0 °F - 44.6 °F 71% 30.14 in 10.0 mi NNE 10.4 mph 18.4 mph N/A   Clear
1:35 AM 51.4 °F - 41.7 °F 69% 30.14 in 10.0 mi NNE 10.4 mph 19.6 mph N/A   Clear
1:55 AM 49.5 °F - 38.1 °F 65% 30.15 in 10.0 mi NNE 10.4 mph 17.3 mph N/A   Clear
2:15 AM 48.4 °F - 36.3 °F 63% 30.15 in 10.0 mi NNE 8.1 mph 16.1 mph N/A   Clear
2:35 AM 47.5 °F - 35.8 °F 64% 30.16 in 10.0 mi NNE 9.2 mph 17.3 mph N/A   Clear
2:55 AM 46.9 °F - 36.1 °F 66% 30.16 in 10.0 mi NNE 9.2 mph 17.3 mph N/A   Clear
3:15 AM 46.9 °F - 35.8 °F 65% 30.17 in 10.0 mi NNE 6.9 mph - N/A   Clear
3:35 AM 46.4 °F 42.9 °F 36.0 °F 67% 30.17 in 10.0 mi NE 6.9 mph - N/A   Clear
3:55 AM 45.7 °F 42.0 °F 36.1 °F 69% 30.18 in 10.0 mi NE 6.9 mph - N/A   Clear
4:15 AM 45.9 °F 41.7 °F 36.3 °F 69% 30.18 in 10.0 mi NE 8.1 mph - N/A   Clear
4:35 AM 45.9 °F 42.3 °F 36.7 °F 70% 30.19 in 10.0 mi ENE 6.9 mph - N/A   Clear
4:55 AM 45.5 °F 41.8 °F 37.2 °F 73% 30.19 in 10.0 mi ENE 6.9 mph - N/A   Clear
5:15 AM 45.5 °F 42.5 °F 37.6 °F 74% 30.19 in 10.0 mi ENE 5.8 mph - N/A   Clear
5:35 AM 45.7 °F 42.0 °F 37.9 °F 74% 30.19 in 10.0 mi ENE 6.9 mph - N/A   Clear
5:55 AM 45.7 °F 42.7 °F 38.1 °F 75% 30.20 in 10.0 mi ENE 5.8 mph - N/A   Clear
6:15 AM 45.1 °F 42.0 °F 38.7 °F 78% 30.20 in 10.0 mi ENE 5.8 mph - N/A   Clear
6:35 AM 44.8 °F 41.6 °F 39.2 °F 81% 30.20 in 10.0 mi ENE 5.8 mph - N/A   Clear
6:55 AM 44.6 °F 43.1 °F 39.7 °F 83% 30.21 in 10.0 mi ENE 3.5 mph - N/A   Clear
7:15 AM 44.6 °F 42.2 °F 40.5 °F 85% 30.21 in 10.0 mi East 4.6 mph - N/A   Clear
7:35 AM 45.9 °F 42.9 °F 41.0 °F 83% 30.22 in 10.0 mi East 5.8 mph - N/A   Clear
7:55 AM 47.8 °F - 41.5 °F 79% 30.23 in 10.0 mi East 4.6 mph - N/A   Clear
8:15 AM 49.5 °F - 42.1 °F 76% 30.24 in 10.0 mi East 6.9 mph - N/A   Mostly Cloudy
8:35 AM 50.0 °F - 42.4 °F 75% 30.24 in 10.0 mi ENE 4.6 mph - N/A   Mostly Cloudy
8:55 AM 50.5 °F - 42.8 °F 75% 30.24 in 10.0 mi ENE 4.6 mph - N/A   Mostly Cloudy
9:15 AM 50.5 °F - 42.8 °F 75% 30.25 in 10.0 mi NE 4.6 mph - N/A   Mostly Cloudy
9:35 AM 50.0 °F - 42.8 °F 76% 30.24 in 10.0 mi NE 6.9 mph - N/A   Overcast
9:55 AM 50.7 °F - 42.8 °F 74% 30.24 in 10.0 mi NE 4.6 mph - N/A   Mostly Cloudy
10:15 AM 51.6 °F - 43.3 °F 73% 30.23 in 10.0 mi ENE 6.9 mph - N/A   Mostly Cloudy
10:35 AM 52.3 °F - 43.7 °F 72% 30.23 in 10.0 mi NE 6.9 mph - N/A   Mostly Cloudy
10:55 AM 52.3 °F - 43.9 °F 73% 30.21 in 10.0 mi ENE 5.8 mph - N/A   Scattered Clouds
11:15 AM 52.7 °F - 44.2 °F 73% 30.22 in 10.0 mi ENE 4.6 mph - N/A   Mostly Cloudy
11:35 AM 52.3 °F - 44.6 °F 75% 30.22 in 10.0 mi ENE 5.8 mph - N/A   Mostly Cloudy
11:55 AM 52.9 °F - 45.0 °F 74% 30.20 in 10.0 mi ENE 6.9 mph - N/A   Mostly Cloudy
12:15 PM 54.0 °F - 45.5 °F 73% 30.19 in 10.0 mi ENE 9.2 mph - N/A   Mostly Cloudy
12:35 PM 53.6 °F - 45.9 °F 75% 30.18 in 10.0 mi ENE 5.8 mph - N/A   Overcast
12:55 PM 54.1 °F - 46.4 °F 75% 30.16 in 10.0 mi East 5.8 mph - N/A   Scattered Clouds
1:15 PM 54.3 °F - 46.8 °F 76% 30.15 in 10.0 mi ESE 5.8 mph - N/A   Scattered Clouds
1:35 PM 57.2 °F - 48.4 °F 72% 30.14 in 10.0 mi ESE 4.6 mph - N/A   Scattered Clouds
1:55 PM 58.1 °F - 49.3 °F 72% 30.12 in 10.0 mi ESE 4.6 mph - N/A   Clear
2:15 PM 61.5 °F - 52.0 °F 71% 30.11 in 10.0 mi ESE 4.6 mph - N/A   Clear
2:35 PM 65.8 °F - 55.2 °F 69% 30.10 in 10.0 mi SE 4.6 mph - N/A   Clear
2:55 PM 68.5 °F - 58.1 °F 69% 30.10 in 10.0 mi SSE 8.1 mph - N/A   Clear
3:15 PM 69.1 °F - 59.9 °F 72% 30.10 in 10.0 mi SSE 6.9 mph - N/A   Clear
3:35 PM 68.9 °F - 59.5 °F 72% 30.10 in 10.0 mi South 4.6 mph - N/A   Clear
3:55 PM 68.4 °F - 59.2 °F 72% 30.09 in 10.0 mi South 4.6 mph - N/A   Clear
4:15 PM 67.1 °F - 58.6 °F 74% 30.10 in 10.0 mi South 3.5 mph - N/A   Clear
4:35 PM 65.8 °F - 57.4 °F 74% 30.09 in 10.0 mi South 5.8 mph - N/A   Clear
4:55 PM 64.9 °F - 55.9 °F 73% 30.10 in 10.0 mi South 5.8 mph - N/A   Clear
5:15 PM 64.0 °F - 55.0 °F 73% 30.10 in 10.0 mi South 6.9 mph - N/A   Clear
5:35 PM 63.7 °F - 53.8 °F 70% 30.10 in 10.0 mi SSW 4.6 mph - N/A   Clear
5:55 PM 63.1 °F - 53.8 °F 71% 30.10 in 10.0 mi South 8.1 mph - N/A   Clear
6:15 PM 62.2 °F - 54.1 °F 75% 30.11 in 10.0 mi South 5.8 mph - N/A   Clear
6:35 PM 61.7 °F - 54.9 °F 78% 30.11 in 10.0 mi South 6.9 mph - N/A   Clear
6:55 PM 61.9 °F - 56.5 °F 82% 30.11 in 10.0 mi SSW 8.1 mph - N/A   Clear
7:15 PM 61.7 °F - 57.0 °F 85% 30.11 in 10.0 mi South 8.1 mph - N/A   Clear
7:35 PM 61.7 °F - 57.4 °F 86% 30.11 in 10.0 mi South 6.9 mph - N/A   Clear
7:55 PM 61.5 °F - 58.1 °F 89% 30.11 in 10.0 mi SSW 8.1 mph - N/A   Clear
8:15 PM 61.2 °F - 58.6 °F 91% 30.10 in 10.0 mi South 6.9 mph - N/A   Clear
8:35 PM 61.5 °F - 59.5 °F 93% 30.10 in 10.0 mi South 5.8 mph - N/A   Clear
8:55 PM 61.3 °F - 59.9 °F 95% 30.09 in 10.0 mi SSW 4.6 mph - N/A   Clear
9:15 PM 61.0 °F - 59.9 °F 96% 30.09 in 10.0 mi SSW 8.1 mph - N/A   Clear
9:35 PM 60.6 °F - 59.7 °F 97% 30.09 in 10.0 mi SSW 8.1 mph - N/A   Clear
9:55 PM 61.0 °F - 60.1 °F 97% 30.09 in 10.0 mi SSW 8.1 mph - N/A   Clear
10:15 PM 60.6 °F - 59.5 °F 96% 30.08 in 10.0 mi SSW 6.9 mph 16.1 mph N/A   Clear
10:35 PM 60.6 °F - 59.4 °F 96% 30.08 in 10.0 mi SSW 9.2 mph - N/A   Clear
10:55 PM 61.0 °F - 59.5 °F 95% 30.08 in 10.0 mi SSW 8.1 mph - N/A   Clear
11:15 PM 61.0 °F - 59.5 °F 95% 30.08 in 10.0 mi SSW 8.1 mph - N/A   Clear
11:35 PM 60.8 °F - 59.4 °F 95% 30.08 in 10.0 mi SSW 6.9 mph - N/A   Clear
11:55 PM 60.8 °F - 59.4 °F 95% 30.07 in 10.0 mi SSW 6.9 mph - N/A   Clear